Weather History for Crestview, FL

Change the Weather History Date:

Sunday, January 20, 2013

  Actual Average Record
Temperature  
Mean Temperature 52 °F -  
Max Temperature 66 °F - - ()
Min Temperature 37 °F - - ()
Degree Days  
Heating Degree Days 14    
Growing Degree Days 2 (Base 50)    
Moisture  
Dew Point 40 °F    
Average Humidity 80    
Maximum Humidity 100    
Minimum Humidity 37    
Precipitation  
Precipitation 0.00 in - - ()
Sea Level Pressure  
Sea Level Pressure 30.22 in    
Wind  
Wind Speed 1 mph (NNW)    
Max Wind Speed 10 mph    
Max Gust Speed -    
Visibility 7 miles    
Events      
T = Trace of Precipitation, MM = Missing Value Source: NWS Daily Summary

Daily Weather History Graph

Daily Weather History Graph

Search for Another Location

Airport:

Trip Planner

Search our weather history database for the weather conditions in past years. The results will help you decide how hot, cold, wet, or windy it might be!

Date:

Astronomy

Jan. 20, 2013 Rise Set
Actual Time 6:42 AM CST 5:11 PM CST
Civil Twilight 6:17 AM CST 5:37 PM CST
Nautical Twilight 5:47 AM CST 6:07 PM CST
Astronomical Twilight 5:18 AM CST 6:35 PM CST
Moon 12:11 PM CST (1/20) 1:16 AM CST (1/20)
Length of Visible Light 11h 20m
Length of Day
10h 29m
Waxing Gibbous, 66% of the Moon is Illuminated
Jan 20
Waxing Gibbous
Jan 26
Full
Feb 3
Last Quarter
Feb 10
New
Feb 17
First Quarter

Hourly Weather History & Observations

Time (CST) Temp. Windchill Dew Point Humidity Pressure Visibility Wind Dir Wind Speed Gust Speed Precip Events Conditions
12:55 AM 48.2 °F - 44.2 °F 86% 30.26 in 10.0 mi Calm Calm - N/A   Mostly Cloudy
1:55 AM 47.5 °F - 44.1 °F 88% 30.25 in 10.0 mi Calm Calm - N/A   Overcast
2:55 AM 44.1 °F 42.5 °F 42.4 °F 94% 30.25 in 10.0 mi NNW 3.5 mph - N/A   Scattered Clouds
3:55 AM 42.4 °F - 40.6 °F 93% 30.24 in 10.0 mi Calm Calm - N/A   Clear
4:55 AM 40.3 °F - 38.8 °F 95% 30.24 in 10.0 mi Calm Calm - N/A   Clear
5:29 AM 37.4 °F 34.9 °F 35.6 °F 93% 30.25 in 2.5 mi NNW 3.5 mph - N/A   Clear
5:30 AM 37.4 °F - 35.6 °F 93% 30.25 in 2.0 mi Calm Calm - N/A   Clear
5:31 AM 37.4 °F - 35.6 °F 93% 30.25 in 1.5 mi Calm Calm - N/A   Clear
5:32 AM 37.4 °F - 35.6 °F 93% 30.25 in 1.2 mi Calm Calm - N/A   Clear
5:33 AM 37.4 °F - 37.4 °F 100% 30.25 in 1.0 mi Calm Calm - N/A   Clear
5:35 AM 39.2 °F - 37.4 °F 93% 30.25 in 0.8 mi Calm Calm - N/A   Clear
5:44 AM 39.2 °F 37.0 °F 37.4 °F 93% 30.25 in 1.0 mi NNW 3.5 mph - N/A   Clear
5:47 AM 39.2 °F 37.0 °F 37.4 °F 93% 30.25 in 1.2 mi NNW 3.5 mph - N/A   Clear
5:49 AM 39.2 °F - 37.4 °F 93% 30.25 in 1.5 mi Calm Calm - N/A   Clear
5:51 AM 39.2 °F - 37.4 °F 93% 30.25 in 2.0 mi Calm Calm - N/A   Clear
5:52 AM 39.2 °F - 37.4 °F 93% 30.25 in 2.5 mi Calm Calm - N/A   Clear
5:54 AM 39.2 °F - 37.4 °F 93% 30.25 in 3.0 mi Calm Calm - N/A   Clear
5:55 AM 38.7 °F - 37.6 °F 96% 30.25 in 2.5 mi Calm Calm - N/A   Clear
6:55 AM 37.2 °F - 36.1 °F 96% 30.25 in 10.0 mi Calm Calm - N/A   Clear
7:55 AM 45.0 °F - 42.6 °F 91% 30.27 in 10.0 mi Calm Calm - N/A   Clear
8:55 AM 52.9 °F - 42.8 °F 69% 30.29 in 10.0 mi North 4.6 mph - N/A   Partly Cloudy
9:55 AM 59.0 °F - 44.6 °F 59% 30.29 in 10.0 mi NNW 6.9 mph - N/A   Clear
10:55 AM 62.1 °F - 41.9 °F 48% 30.25 in 10.0 mi North 10.4 mph - N/A   Clear
11:55 AM 63.5 °F - 40.3 °F 43% 30.20 in 10.0 mi Calm Calm - N/A   Clear
12:55 PM 65.3 °F - 39.4 °F 39% 30.17 in 10.0 mi North 4.6 mph - N/A   Clear
1:55 PM 65.7 °F - 38.8 °F 37% 30.15 in 10.0 mi Variable 4.6 mph - N/A   Clear
2:55 PM 66.4 °F - 39.4 °F 37% 30.14 in 10.0 mi WNW 3.5 mph - N/A   Clear
3:55 PM 65.8 °F - 39.7 °F 38% 30.13 in 10.0 mi NW 3.5 mph - N/A   Clear
4:55 PM 63.1 °F - 41.2 °F 45% 30.14 in 10.0 mi NNW 3.5 mph - N/A   Clear
5:55 PM 53.8 °F - 41.9 °F 64% 30.14 in 10.0 mi Calm Calm - N/A   Clear
6:55 PM 49.8 °F - 43.0 °F 77% 30.15 in 10.0 mi Calm Calm - N/A   Clear
7:55 PM 46.4 °F - 42.4 °F 86% 30.16 in 10.0 mi Calm Calm - N/A   Clear
8:55 PM 43.7 °F - 40.6 °F 89% 30.16 in 10.0 mi Calm Calm - N/A   Clear
9:55 PM 42.1 °F - 39.7 °F 91% 30.17 in 10.0 mi Calm Calm - N/A   Clear
10:55 PM 41.7 °F - 39.2 °F 91% 30.17 in 10.0 mi Calm Calm - N/A   Clear
11:55 PM 43.2 °F - 41.2 °F 93% 30.15 in 10.0 mi Calm Calm - N/A   Clear